FW8876 Weather Reports


time (UTC)temp
C
wind
direction
speed
KPH
gust
KPH
rain 1hr
cm
rain 24hr
cm
rain mn
cm
humidity
%
barometer
mb
20260502162017 31 266 6.4 14.5 0.00 0.00 0.00 32 1010.8
20260502161038 31 253 6.4 9.7 0.00 0.00 0.00 31 1010.7
20260502152030 29 0.0 0.0 0.00 0.00 0.00 29 1010.4
20260502151026 28 222 0.0 3.2 0.00 0.00 0.00 29 1010.2
20260502123126 16 0.0 0.0 0.00 0.00 0.00 51 1008.3
20260502122043 17 0.0 0.0 0.00 0.00 0.00 51 1008.2
20260502121018 17 0.0 0.0 0.00 0.00 0.00 49 1008.2
20260502115037 17 0.0 0.0 0.00 0.00 0.00 47 1008.1
20260502114019 18 0.0 0.0 0.00 0.00 0.00 47 1008.1
20260502113022 18 0.0 0.0 0.00 0.00 0.00 45 1008.0
20260502112024 18 0.0 0.0 0.00 0.00 0.00 42 1007.9
20260502111106 18 0.0 0.0 0.00 0.00 0.00 42 1007.9
20260502110028 18 0.0 0.0 0.00 0.00 0.00 41 1007.9
20260502105030 19 0.0 0.0 0.00 0.00 0.00 41 1007.9
20260502104032 19 0.0 0.0 0.00 0.00 0.00 39 1007.7
20260502103017 20 0.0 0.0 0.00 0.00 0.00 39 1007.5
20260502102019 20 0.0 0.0 0.00 0.00 0.00 39 1007.6
20260502101042 20 0.0 0.0 0.00 0.00 0.00 39 1007.7
20260502091016 21 0.0 0.0 0.00 0.00 0.00 38 1007.4
20260502071019 20 0.0 0.0 0.00 0.00 0.00 42 1006.7
20260502070021 20 0.0 0.0 0.00 0.00 0.00 42 1006.5
20260502065017 20 0.0 0.0 0.00 0.00 0.00 42 1006.6
20260502064026 20 0.0 0.0 0.00 0.00 0.00 40 1006.6
20260502063027 20 0.0 0.0 0.00 0.00 0.00 40 1006.5
20260502062031 21 0.0 0.0 0.00 0.00 0.00 39 1006.3
20260502061027 21 0.0 0.0 0.00 0.00 0.00 39 1006.2
20260502060029 21 0.0 0.0 0.00 0.00 0.00 39 1006.1
20260502055033 21 0.0 0.0 0.00 0.00 0.00 37 1006.1
20260502054017 22 0.0 0.0 0.00 0.00 0.00 37 1006.1
20260502053019 22 0.0 0.0 0.00 0.00 0.00 36 1006.1
20260502052022 22 0.0 0.0 0.00 0.00 0.00 35 1005.9
20260502051024 22 0.0 0.0 0.00 0.00 0.00 36 1005.8
20260502050026 23 0.0 0.0 0.00 0.00 0.00 35 1005.7
20260502045029 23 0.0 0.0 0.00 0.00 0.00 34 1005.8
20260502044031 23 0.0 0.0 0.00 0.00 0.00 34 1005.8
20260502043027 24 0.0 0.0 0.00 0.00 0.00 33 1005.8
20260502042037 25 0.0 0.0 0.00 0.00 0.00 32 1005.6
20260502041039 25 0.0 0.0 0.00 0.00 0.00 31 1005.5
20260502040015 26 0.0 0.0 0.00 0.00 0.00 30 1005.3
20260502035024 26 0.0 0.0 0.00 0.00 0.00 29 1005.2
20260502034026 27 0.0 0.0 0.00 0.00 0.00 28 1005.2
20260502033048 27 0.0 0.0 0.00 0.00 0.00 28 1005.1
20260502032030 28 0.0 0.0 0.00 0.00 0.00 27 1005.0
20260502031032 28 0.0 0.0 0.00 0.00 0.00 26 1004.7
20260502030016 28 0.0 0.0 0.00 0.00 0.00 26 1004.6
20260502025018 28 0.0 0.0 0.00 0.00 0.00 26 1004.6
20260502024020 28 0.0 0.0 0.00 0.00 0.00 26 1004.5
20260502023044 29 0.0 0.0 0.00 0.00 0.00 26 1004.5
20260502022025 29 0.0 0.0 0.00 0.00 0.00 26 1004.5
20260502021028 30 0.0 0.0 0.00 0.00 0.00 26 1004.2
20260502020030 30 0.0 0.0 0.00 0.00 0.00 26 1004.1
20260502015026 30 86 1.6 11.3 0.00 0.00 0.00 26 1004.0
20260502014016 30 63 1.6 8.0 0.00 0.00 0.00 27 1004.0
20260502013038 31 0.0 0.0 0.00 0.00 0.00 26 1004.0
20260502012020 32 0.0 0.0 0.00 0.00 0.00 24 1004.1
20260502011023 32 0.0 0.0 0.00 0.00 0.00 24 1004.2
20260502010025 32 0.0 0.0 0.00 0.00 0.00 24 1004.2
20260502005027 32 0.0 0.0 0.00 0.00 0.00 25 1004.2
20260502004029 32 0.0 3.2 0.00 0.00 0.00 26 1004.2
20260502003031 32 86 4.8 9.7 0.00 0.00 0.00 26 1004.2
20260502002033 33 90 1.6 9.7 0.00 0.00 0.00 26 1004.5
20260502001038 33 0.0 0.0 0.00 0.00 0.00 27 1004.3
20260502000019 33 113 1.6 8.0 0.00 0.00 0.00 26 1004.5
20260501235021 33 0.0 0.0 0.00 0.00 0.00 26 1004.5
20260501234023 33 1.6 9.7 0.00 0.00 0.00 26 1004.5
20260501233026 33 0.0 0.0 0.00 0.00 0.00 27 1004.5
20260501232048 33 86 0.0 8.0 0.00 0.00 0.00 26 1004.6
20260501231024 33 0.0 6.4 0.00 0.00 0.00 26 1004.8
20260501230021 34 89 3.2 11.3 0.00 0.00 0.00 26 1004.8
20260501225037 33 92 1.6 8.0 0.00 0.00 0.00 26 1004.9
20260501224019 34 99 4.8 12.9 0.00 0.00 0.00 26 1005.1
20260501223041 34 96 3.2 9.7 0.00 0.00 0.00 25 1005.3
20260501222023 33 45 0.0 3.2 0.00 0.00 0.00 24 1005.4
20260501221020 34 0.0 12.9 0.00 0.00 0.00 25 1005.5
20260501220027 33 0.0 3.2 0.00 0.00 0.00 25 1005.8
20260501215025 34 105 9.7 17.7 0.00 0.00 0.00 25 1005.9
20260501214027 33 74 6.4 11.3 0.00 0.00 0.00 26 1006.0
20260501213029 33 92 3.2 9.7 0.00 0.00 0.00 28 1006.2
20260501212031 33 80 8.0 12.9 0.00 0.00 0.00 27 1006.2
20260501211053 34 107 4.8 12.9 0.00 0.00 0.00 27 1006.5
20260501210017 33 90 1.6 9.7 0.00 0.00 0.00 26 1006.5
20260501205019 34 87 4.8 8.0 0.00 0.00 0.00 26 1006.7
20260501204022 33 0.0 0.0 0.00 0.00 0.00 28 1006.7
20260501203024 32 113 0.0 8.0 0.00 0.00 0.00 29 1006.8
20260501202020 32 53 6.4 9.7 0.00 0.00 0.00 28 1007.0
20260501201037 32 255 0.0 4.8 0.00 0.00 0.00 28 1007.1
20260501200031 32 95 6.4 9.7 0.00 0.00 0.00 29 1007.3
20260501195032 32 96 6.4 14.5 0.00 0.00 0.00 29 1007.3
20260501194017 31 113 1.6 9.7 0.00 0.00 0.00 29 1007.5
20260501193019 32 96 4.8 12.9 0.00 0.00 0.00 29 1007.6
20260501192029 32 95 6.4 11.3 0.00 0.00 0.00 30 1007.8
20260501191031 32 0.0 0.0 0.00 0.00 0.00 31 1007.8
20260501190033 31 0.0 0.0 0.00 0.00 0.00 32 1008.0
20260501185017 31 0.0 0.0 0.00 0.00 0.00 32 1008.2
20260501184019 31 63 3.2 9.7 0.00 0.00 0.00 32 1008.3
20260501183022 30 113 1.6 9.7 0.00 0.00 0.00 32 1008.3
20260501182023 31 91 6.4 9.7 0.00 0.00 0.00 32 1008.4
20260501181106 30 90 3.2 9.7 0.00 0.00 0.00 33 1008.7
20260501180028 30 0.0 0.0 0.00 0.00 0.00 35 1008.9
20260501175024 30 0.0 0.0 0.00 0.00 0.00 34 1008.9
20260501174020 29 125 1.6 6.4 0.00 0.00 0.00 35 1009.0
20260501173037 28 0.0 0.0 0.00 0.00 0.00 36 1009.0
20260501172019 28 92 6.4 11.3 0.00 0.00 0.00 35 1009.1
20260501171021 28 84 1.6 6.4 0.00 0.00 0.00 37 1009.0
20260501170023 27 0.0 0.0 0.00 0.00 0.00 37 1009.1
20260501165026 28 68 0.0 11.3 0.00 0.00 0.00 37 1008.9
20260501164048 27 0.0 0.0 0.00 0.00 0.00 38 1009.0
20260501163030 27 0.0 0.0 0.00 0.00 0.00 38 1009.0